Location: G�yn�k
(36.6721°N, 30.5542°E)
Time: 09:03:00
(UTC+00:00)

STARLINK-1049 - Pass Details

Date: 07 June 2020
Orbit: 549 x 551 km, 53.0° (Epoch: 06 July)

Event Time Altitude Azimuth Distance (km) Brightness Sun altitude
Exits shadow 00:34:32 57° 225° (SW) 646 3.6 -19.9°
Maximum altitude 00:35:20 90° 149° (SSE) 552 3.5 -19.8°
Drops below altitude 10° 00:39:29 10° 47° (NE) 1,821 7.5 -19.2°
Sets 00:41:43 0° 47° (NE) 2,717 8.8 -18.9°
